Hourly Data Report for October 14, 2013

All times are specified in Local Standard Time (LST). Add 1 hour to adjust for Daylight Saving Time where and when it is observed.

QIKIQTARJUAQ A
NUNAVUT

67°32'48.000" N
64°01'54.000" W
5.50 m
2400577
YVM

Download Data

Hourly Data (October 2013)
Hourly Data Report for October 14, 2013
Temp Definition
°C
Dew Point Temp Definition
°C
Rel Hum Definition
%
Wind Dir Definition
10's deg

Wind Spd Definition
km/h
Visibility Definition
km
Stn Press Definition
kPa
Hmdx Definition


Wind Chill Definition


Weather Definition


TIME
00:00 Legend Double Dagger -0.6 -1.6 93 7 11 16.1 100.80   -4 LegendNANA
01:00 Legend Double Dagger 0.1 -0.6 95 LegendMM 4 16.1 100.81     LegendNANA
02:00 Legend Double Dagger 0.6 -0.6 92 6 13 16.1 100.81     LegendNANA
03:00 Legend Double Dagger 0.7 -0.3 93 LegendMM 4 16.1 100.80     LegendNANA
04:00 Legend Double Dagger 0.8 -0.2 93 20 11 16.1 100.80     LegendNANA
05:00 Legend Double Dagger 1.3 -0.2 90 19 8 16.1 100.83     LegendNANA
06:00 Legend Double Dagger 1.1 -0.1 92 15 5 16.1 100.86     LegendNANA
07:00 Legend Double Dagger 0.9 0.0 94 20 13 16.1 100.86     LegendNANA
08:00 Legend Double Dagger 0.8 0.1 95 21 9 16.1 100.90     LegendNANA
09:00 Legend Double Dagger 1.1 0.1 93 19 11 16.1 100.88     LegendNANA
10:00 Legend Double Dagger 1.5 0.2 91 21 13 16.1 100.90     LegendNANA
11:00 Legend Double Dagger 2.4 0.3 86 18 9 16.1 100.90     LegendNANA
12:00 Legend Double Dagger 1.5 0.2 91 8 8 16.1 100.94     LegendNANA
13:00 Legend Double Dagger 1.3 0.3 93 4 5 16.1 101.00     LegendNANA
14:00 Legend Double Dagger 1.5 0.4 92 5 9 16.1 101.05     LegendNANA
15:00 Legend Double Dagger 1.4 0.5 94 6 9 16.1 101.06     LegendNANA
16:00 Legend Double Dagger 1.0 0.3 95 6 13 16.1 101.11     LegendNANA
17:00 Legend Double Dagger 1.1 0.2 94 6 11 16.1 101.15     LegendNANA
18:00 Legend Double Dagger 0.9 0.5 97 8 11 12.9 101.15     LegendNANA
19:00 Legend Double Dagger 0.8 0.4 97 7 15 16.1 101.17     LegendNANA
20:00 Legend Double Dagger 0.7 0.4 98 8 5 2.0 101.19     LegendNANA
21:00 Legend Double Dagger 0.7 0.6 99 5 9 1.2 101.20     LegendNANA
22:00 Legend Double Dagger 0.5 0.4 99 6 8 0.8 101.19     LegendNANA
23:00 Legend Double Dagger 0.6 0.5 99 5 8 1.2 101.17     LegendNANA

Notes on Data Quality.

Legend

  • E = Estimated
  • M = Missing
  • NA = Not Available
  • ‡ = Partner data that is not subject to review by the National Climate Archives
Date modified: